Location: Gouy
(50.0008°N, 3.2556°E)
Time: 01:39:10
(UTC+00:00)

Cosmos 1782 Rocket - Pass Details

Date: 23 August 2024
Orbit: 603 x 628 km, 82.5° (Epoch: 11 September)

Event Time Altitude Azimuth Distance (km) Brightness Sun altitude
Exits shadow 02:05:29 15° 139° (SE) 1,718 5.7 -21.9°
Maximum altitude 02:08:21 27° 88° (E) 1,204 5.4 -21.6°
Drops below altitude 10° 02:12:08 10° 31° (NNE) 2,018 7.3 -21.2°
Sets 02:14:37 0° 20° (NNE) 2,931 8.3 -21.0°
